Weather Roundup
Issued by NWS Chicago, IL

Home | Current Version | Previous Version | Text Only | Print | Product List | Glossary Off
Versions: 1 2 3 4 5 6 7 8 9 10 11 12 13 14 15 16 17 18 19 20 21 22 23 24 25 26 27 28 29 30 31 32 33 34 35 36 37 38 39 40 41 42 43 44 45 46 47 48 49 50

000
NZUS59 KLOT 290006
HRRLOT

CHICAGO AREA WEATHER ROUNDUP
NATIONAL WEATHER SERVICE CHICAGO/ROMEOVILLE IL
600 PM CST FRI NOV 28 2014

NOTE: "FAIR" INDICATES FEW OR NO CLOUDS BELOW 12,000 FEET WITH NO
SIGNIFICANT WEATHER AND/OR OBSTRUCTIONS TO VISIBILITY.

* THESE STATIONS ARE NOT UNDER NWS QUALITY CONTROL. THEY ALSO MAY NOT
  REPORT WEATHER SUCH AS PRECIPITATION OR FOG.

ILZ005-006-012>014-019>023-290100-
NORTHEAST ILLINOIS

CITY           SKY/WX    TMP DP  RH WIND       PRES   REMARKS
OHARE          CLOUDY    32  25  75 S14       29.98R WCI  22
6HR MIN TEMP:  27; 6HR MAX TEMP:  32;

MIDWAY         CLOUDY    34  25  69 S12G20    29.99S WCI  25
6HR MIN TEMP:  30; 6HR MAX TEMP:  34;

AURORA         CLOUDY    34  28  79 S10       29.96F WCI  26
6HR MIN TEMP:  28; 6HR MAX TEMP:  34;

LANSING*       CLOUDY    32  25  74 S10       30.00F WCI  24
JOLIET*        CLOUDY    35  29  82 S10       29.99F WCI  27
WAUKEGAN       CLOUDY    31  23  72 SE12      29.96F WCI  22
6HR MIN TEMP:  25; 6HR MAX TEMP:  31;

DUPAGE AIRPORT CLOUDY    32  27  81 SE13      29.95F WCI  22
6HR MIN TEMP:  27; 6HR MAX TEMP:  32;

WHEELING       CLOUDY    32  25  75 S13       29.99F WCI  22
6HR MIN TEMP:  26; 6HR MAX TEMP:  32;

KANKAKEE*      MOCLDY    35  30  82 S12       30.01F WCI  26
MORRIS*        CLOUDY    35  32  89 S12       29.97F WCI  26
LEWIS AIRPORT* CLOUDY    33  29  86 S9        29.98S WCI  25
NORTHERLY IS     N/A     32  24  73 S13         N/A  WCI  22
$$

WIZ051-052-058>065-066-070>072-290100-
SOUTHEAST WISCONSIN

CITY           SKY/WX    TMP DP  RH WIND       PRES   REMARKS
MILWAUKEE      MOCLDY    30  20  66 S8        29.94F WCI  22
6HR MIN TEMP:  25; 6HR MAX TEMP:  30;

KENOSHA*       CLOUDY    30  24  78 S10       29.95F WCI  21
RACINE*        MOCLDY    31  23  72 S14G21    29.96F WCI  21
BURLINGTON     MOCLDY    28  24  84 S8        29.92F WCI  20
WAUKESHA       CLOUDY    27  19  74 SE12      29.98S WCI  16
WEST BEND      CLOUDY    28  19  69 SE3       29.94S
$$

INZ001>003-010>013-019-020-290100-
NORTHWEST INDIANA

CITY           SKY/WX    TMP DP  RH WIND       PRES   REMARKS
GARY*          CLOUDY    32  25  74 SE14      30.01F WCI  22
MICHIGAN CITY* NOT AVBL
RENSSELAER*    NOT AVBL
VALPARAISO     CLOUDY    30  21  69 SE13      30.02F WCI  20
$$

LMZ740>746-290100-
SOUTHERN LAKE MICHIGAN

STATION/POSITION TIME  SKY/WX   TEMP WIND        PRES    VSBY
                                AIR  DIR/SP/G
                 (UTC)          (F)  (DEG/KT/KT) (MB)    (MI)
HARRISON CRIB    0000            32  170/ 20/ 23   N/A
BURNHAM HARBOR   0000            32  160/ 13/ 15   N/A
CALUMET HARBOR   0000            32  150/  7/ 13 1014.9S
BURNS HARBOR     NOT AVBL
MICHIGAN CITY    0000            30  130/ 14/ 18   N/A
$$

ABBREVIATIONS USED IN REMARKS
   TC - TEMPERATURE IN CELSIUS
  WCI - WIND CHILL INDEX
   HX - HEAT INDEX
  VSB - VISIBILITY
$$


USA.gov is the U.S. government's official web portal to all federal, state and local government web resources and services.